Temp
-15 -15 -15 -15 -15 -16 -16 -16 -16 -15 -15 -15 -15 -15 -15 -15 -15 -15 -15 -15 -14 -14 -14 -14 -14 -14 -14 -14 -14 -14 -14 -14 -13 -14 -14 -14 -14 -14 -14 -14 -14 -14
-15 -15 -15 -16 -16 -16 -16 -16 -16 -16 -16 -15 -15 -15 -15 -15 -15 -15 -15 -15 -15 -15 -14 -14 -14 -14 -14 -14 -14 -14 -14 -14 -14 -14 -14 -14 -14 -14 -14 -14 -14 -14
-15 -15 -16 -16 -16 -16 -16 -16 -16 -16 -16 -16 -16 -15 -15 -15 -15 -15 -15 -15 -15 -15 -15 -15 -14 -14 -14 -14 -14 -14 -14 -14 -14 -14 -14 -14 -14 -14 -14 -14 -14 -14
-15 -16 -16 -16 -16 -16 -16 -16 -16 -16 -16 -16 -16 -16 -15 -15 -15 -15 -15 -15 -15 -15 -15 -15 -15 -14 -14 -14 -14 -14 -14 -14 -14 -14 -14 -14 -14 -14 -14 -14 -14 -15
-16 -16 -16 -16 -16 -16 -16 -16 -16 -16 -16 -16 -16 -16 -16 -16 -15 -15 -15 -15 -15 -15 -15 -15 -15 -15 -15 -14 -14 -14 -14 -14 -14 -14 -14 -14 -14 -14 -14 -14 -15 -15
-16 -16 -16 -16 -16 -16 -16 -16 -16 -16 -16 -16 -16 -16 -16 -16 -16 -16 -16 -16 -15 -15 -15 -15 -15 -15 -15 -15 -15 -15 -15 -14 -14 -14 -14 -14 -15 -15 -15 -15 -15 -15
-16 -16 -16 -16 -16 -16 -16 -16 -16 -17 -17 -17 -16 -16 -16 -16 -16 -16 -16 -16 -16 -16 -16 -16 -15 -15 -15 -15 -15 -15 -15 -15 -15 -15 -15 -15 -15 -15 -15 -15 -15 -15
-16 -16 -16 -16 -16 -16 -17 -17 -17 -17 -17 -17 -16 -16 -16 -16 -16 -16 -16 -16 -16 -16 -16 -16 -16 -16 -16 -16 -16 -16 -16 -16 -16 -16 -16 -16 -16 -16 -16 -16 -16 -16
-16 -16 -16 -16 -16 -17 -17 -17 -17 -17 -17 -17 -17 -17 -17 -17 -17 -17 -16 -16 -16 -16 -16 -16 -16 -16 -16 -16 -16 -16 -16 -16 -16 -16 -16 -16 -16 -16 -16 -16 -16 -16
-16 -16 -16 -17 -17 -17 -17 -17 -17 -17 -17 -17 -17 -17 -17 -17 -17 -17 -17 -16 -16 -16 -16 -16 -17 -17 -17 -17 -17 -16 -16 -17 -16 -16 -16 -16 -16 -16 -16 -16 -16 -16
-16 -16 -17 -17 -17 -17 -17 -17 -17 -17 -17 -17 -17 -17 -17 -17 -17 -17 -17 -17 -17 -17 -17 -17 -17 -17 -17 -17 -17 -17 -17 -17 -17 -17 -17 -17 -16 -16 -16 -16 -16 -16
-17 -17 -17 -17 -17 -17 -17 -17 -17 -17 -17 -17 -17 -17 -17 -17 -17 -17 -17 -17 -17 -17 -17 -17 -17 -17 -17 -17 -17 -17 -17 -17 -17 -17 -17 -17 -17 -17 -17 -17 -17 -16
-17 -17 -17 -17 -17 -17 -17 -17 -17 -17 -17 -17 -17 -17 -17 -17 -17 -17 -17 -17 -17 -17 -17 -17 -17 -17 -17 -17 -17 -17 -17 -17 -17 -17 -17 -17 -17 -17 -17 -17 -17 -17
-17 -17 -17 -17 -17 -17 -17 -17 -17 -17 -17 -17 -17 -17 -17 -17 -17 -17 -17 -17 -17 -17 -17 -17 -17 -17 -17 -17 -17 -17 -17 -17 -17 -17 -17 -17 -17 -17 -17 -17 -16 -16
-17 -17 -17 -17 -17 -17 -17 -17 -17 -17 -17 -17 -17 -17 -17 -18 -18 -18 -18 -18 -18 -18 -18 -17 -17 -17 -17 -17 -17 -17 -17 -17 -17 -17 -17 -17 -17 -17 -17 -17 -17 -17
-17 -17 -17 -18 -18 -18 -18 -17 -17 -17 -17 -17 -18 -18 -18 -18 -18 -18 -18 -18 -18 -18 -18 -18 -18 -17 -17 -17 -17 -17 -17 -18 -18 -18 -17 -17 -17 -17 -17 -17 -17 -17
-18 -18 -18 -18 -18 -18 -18 -18 -18 -18 -18 -18 -18 -18 -18 -18 -18 -18 -18 -18 -18 -18 -18 -18 -18 -18 -18 -18 -18 -18 -18 -18 -18 -18 -18 -18 -18 -18 -18 -18 -18 -17
-18 -18 -18 -18 -18 -18 -18 -18 -18 -18 -18 -18 -18 -18 -18 -18 -18 -18 -18 -18 -18 -18 -18 -18 -18 -18 -18 -18 -18 -18 -18 -18 -18 -18 -18 -18 -18 -18 -18 -18 -18 -18
-18 -18 -18 -18 -18 -18 -18 -18 -18 -18 -18 -18 -18 -18 -18 -18 -18 -18 -19 -19 -19 -19 -19 -19 -19 -19 -19 -19 -19 -19 -19 -19 -19 -19 -18 -18 -18 -18 -18 -18 -18 -18
-18 -18 -18 -18 -18 -18 -18 -18 -18 -18 -18 -18 -18 -18 -18 -19 -19 -19 -19 -19 -19 -19 -19 -19 -19 -19 -19 -19 -19 -19 -19 -19 -19 -19 -19 -19 -19 -19 -18 -18 -18 -18
-18 -18 -18 -18 -18 -18 -18 -18 -18 -19 -19 -19 -19 -19 -19 -19 -19 -19 -19 -19 -19 -19 -19 -19 -19 -19 -19 -19 -19 -19 -19 -19 -19 -19 -19 -19 -19 -19 -19 -19 -19 -18
-18 -18 -18 -18 -18 -18 -19 -19 -19 -19 -19 -19 -19 -19 -19 -19 -20 -20 -20 -20 -20 -20 -20 -20 -20 -20 -20 -20 -20 -20 -20 -20 -20 -20 -20 -20 -20 -20 -19 -19 -19 -19
-18 -18 -18 -18 -19 -19 -19 -19 -19 -19 -19 -19 -19 -20 -20 -20 -20 -20 -20 -20 -20 -20 -20 -20 -20 -20 -20 -20 -20 -20 -20 -20 -20 -20 -20 -20 -20 -20 -20 -20 -19 -19
-18 -19 -19 -19 -19 -19 -19 -19 -19 -20 -20 -20 -20 -20 -20 -20 -20 -20 -20 -20 -20 -20 -20 -20 -20 -20 -20 -20 -20 -20 -20 -20 -20 -20 -20 -20 -20 -20 -20 -20 -20 -20
-19 -19 -19 -19 -19 -19 -20 -20 -20 -20 -20 -20 -20 -20 -20 -20 -20 -20 -20 -21 -21 -21 -21 -20 -20 -20 -21 -21 -21 -21 -21 -21 -21 -21 -20 -20 -20 -20 -20 -20 -21 -21
-19 -19 -19 -19 -20 -20 -20 -20 -20 -20 -20 -20 -20 -20 -20 -21 -21 -21 -21 -21 -21 -21 -21 -21 -21 -21 -21 -21 -21 -21 -21 -21 -21 -21 -21 -21 -20 -21 -21 -21 -22 -22
Height
5803 5803 5802 5802 5801 5800 5799 5798 5796 5795 5794 5792 5791 5790 5789 5788 5787 5786 5785 5783 5782 5781 5779 5778 5776 5775 5774 5773 5772 5770 5769 5768 5767 5765 5764 5762 5761 5760 5758 5757 5755 5754
5800 5800 5799 5799 5797 5796 5795 5793 5792 5791 5790 5789 5788 5787 5786 5785 5783 5782 5780 5779 5778 5776 5775 5773 5772 5771 5769 5768 5767 5766 5764 5763 5762 5761 5759 5758 5756 5755 5754 5752 5751 5749
5797 5796 5796 5795 5793 5792 5790 5789 5788 5787 5786 5785 5784 5783 5782 5781 5779 5778 5776 5774 5773 5771 5770 5769 5767 5766 5765 5763 5762 5761 5760 5758 5757 5756 5754 5752 5751 5750 5749 5747 5746 5744
5793 5792 5791 5790 5789 5788 5787 5786 5785 5783 5782 5781 5779 5778 5777 5776 5774 5772 5771 5769 5767 5766 5765 5764 5762 5761 5760 5758 5757 5756 5755 5754 5752 5751 5749 5747 5745 5744 5743 5742 5741 5739
5789 5788 5787 5786 5785 5784 5783 5782 5781 5779 5778 5776 5775 5773 5772 5771 5769 5767 5765 5764 5762 5761 5759 5758 5756 5755 5754 5753 5751 5750 5749 5748 5746 5745 5743 5742 5740 5738 5737 5736 5735 5734
5785 5784 5783 5782 5781 5780 5779 5778 5777 5775 5774 5772 5770 5769 5767 5766 5764 5762 5760 5759 5757 5755 5754 5752 5751 5749 5748 5746 5745 5744 5742 5741 5740 5738 5737 5735 5734 5732 5731 5730 5729 5728
5781 5780 5779 5778 5777 5776 5775 5774 5773 5771 5769 5768 5766 5764 5762 5761 5759 5757 5756 5754 5752 5751 5749 5747 5746 5744 5742 5740 5739 5737 5736 5735 5733 5732 5730 5729 5728 5726 5725 5724 5723 5722
5777 5776 5775 5774 5774 5773 5772 5770 5768 5767 5765 5763 5762 5760 5758 5756 5754 5753 5751 5749 5748 5746 5744 5743 5741 5739 5737 5736 5734 5732 5730 5729 5727 5726 5724 5723 5721 5720 5719 5718 5717 5716
5773 5772 5772 5771 5770 5769 5767 5766 5764 5762 5761 5759 5757 5755 5753 5752 5750 5748 5746 5744 5743 5741 5739 5738 5736 5734 5732 5730 5729 5727 5725 5723 5721 5720 5718 5717 5716 5714 5713 5712 5711 5710
5769 5769 5768 5767 5766 5764 5763 5761 5760 5758 5756 5755 5753 5751 5749 5747 5745 5743 5742 5740 5738 5736 5735 5733 5731 5729 5728 5726 5724 5722 5720 5718 5716 5714 5712 5711 5710 5709 5708 5706 5705 5704
5765 5765 5764 5763 5761 5760 5759 5757 5755 5754 5752 5750 5748 5747 5745 5743 5741 5739 5737 5735 5733 5731 5730 5728 5726 5724 5723 5721 5719 5717 5715 5713 5711 5709 5707 5705 5704 5702 5701 5700 5699 5698
5761 5761 5760 5758 5757 5756 5754 5753 5751 5749 5748 5746 5744 5742 5740 5738 5736 5734 5732 5730 5728 5726 5725 5723 5721 5719 5717 5715 5713 5711 5708 5706 5704 5703 5701 5699 5698 5696 5695 5694 5692 5691
5757 5756 5755 5754 5753 5752 5750 5748 5747 5745 5743 5741 5739 5737 5735 5733 5731 5729 5727 5725 5723 5721 5719 5717 5715 5713 5711 5709 5707 5704 5702 5700 5698 5696 5694 5692 5691 5689 5688 5687 5685 5684
5753 5752 5751 5750 5749 5747 5746 5744 5742 5741 5739 5737 5735 5733 5730 5728 5726 5724 5721 5719 5717 5715 5713 5711 5709 5707 5705 5703 5700 5698 5695 5693 5691 5689 5687 5685 5683 5681 5680 5679 5678 5676
5748 5747 5746 5745 5744 5743 5741 5739 5738 5736 5734 5732 5730 5728 5725 5723 5721 5718 5716 5714 5711 5709 5707 5704 5702 5700 5698 5696 5694 5691 5689 5686 5684 5682 5680 5678 5676 5673 5672 5670 5669 5668
5744 5743 5742 5740 5739 5738 5736 5734 5733 5731 5729 5727 5724 5722 5720 5718 5715 5713 5711 5708 5706 5703 5700 5698 5695 5693 5690 5688 5685 5683 5681 5679 5677 5675 5673 5671 5669 5667 5664 5662 5660 5659
5739 5738 5737 5736 5734 5733 5731 5729 5727 5725 5723 5721 5719 5717 5715 5712 5710 5708 5705 5702 5700 5697 5694 5691 5688 5685 5683 5680 5677 5675 5673 5670 5668 5666 5664 5662 5660 5659 5657 5655 5653 5651
5735 5734 5732 5731 5729 5728 5726 5725 5723 5721 5718 5716 5714 5712 5710 5707 5705 5702 5699 5696 5694 5691 5688 5685 5682 5679 5676 5673 5670 5668 5665 5662 5660 5657 5655 5653 5651 5650 5648 5647 5645 5643
5731 5729 5728 5727 5725 5723 5722 5720 5718 5716 5713 5711 5709 5707 5705 5702 5699 5697 5694 5691 5688 5685 5682 5679 5676 5673 5670 5667 5664 5661 5658 5655 5652 5649 5646 5643 5641 5640 5638 5637 5636 5634
5727 5725 5724 5722 5721 5719 5717 5715 5713 5711 5709 5707 5705 5703 5700 5697 5695 5692 5689 5686 5683 5680 5677 5674 5671 5668 5665 5661 5658 5655 5652 5648 5645 5641 5638 5634 5632 5629 5628 5626 5625 5624
5723 5721 5720 5718 5716 5714 5713 5711 5709 5707 5705 5703 5701 5698 5696 5693 5690 5687 5684 5681 5678 5675 5671 5668 5665 5662 5659 5655 5652 5648 5645 5641 5638 5634 5630 5626 5623 5619 5616 5615 5613 5612
5719 5717 5715 5713 5711 5710 5708 5707 5705 5703 5701 5699 5697 5694 5691 5688 5685 5682 5679 5676 5673 5669 5666 5663 5659 5656 5653 5649 5646 5642 5638 5635 5631 5627 5623 5618 5614 5610 5606 5603 5601 5599
5714 5713 5711 5709 5707 5706 5704 5703 5701 5699 5697 5694 5692 5690 5687 5684 5681 5678 5675 5671 5668 5664 5661 5658 5654 5650 5647 5643 5639 5636 5632 5628 5624 5620 5615 5611 5606 5601 5597 5592 5588 5585
5710 5709 5707 5705 5704 5702 5700 5699 5697 5695 5693 5690 5688 5685 5683 5680 5677 5673 5670 5667 5663 5659 5656 5652 5649 5645 5641 5637 5633 5629 5625 5621 5617 5613 5608 5603 5598 5592 5586 5580 5575 5571
5706 5705 5703 5702 5700 5699 5697 5695 5693 5691 5689 5687 5684 5681 5678 5675 5672 5669 5665 5662 5658 5654 5651 5647 5643 5639 5635 5631 5627 5623 5619 5614 5610 5605 5600 5594 5589 5582 5575 5569 5563 5558
5703 5701 5700 5699 5697 5695 5694 5692 5690 5688 5685 5682 5680 5677 5674 5671 5667 5664 5661 5657 5654 5650 5646 5642 5638 5634 5629 5625 5621 5617 5612 5607 5602 5597 5592 5585 5578 5572 5565 5559 5553 5548
Wind_Speed
32 32 32 33 34 35 35 36 36 36 35 35 35 35 35 35 35 35 35 35 35 35 35 34 33 33 33 33 34 35 35 35 36 36 37 37 37 37 37 37 37 38
33 34 34 34 35 36 37 38 38 38 38 38 38 38 38 38 37 36 36 36 36 36 36 35 34 34 33 34 35 36 37 37 38 38 38 39 39 38 38 38 38 38
35 35 35 35 36 37 39 39 40 40 40 41 41 40 40 40 39 38 37 37 37 36 36 36 35 35 35 35 36 38 39 39 40 40 41 41 41 40 40 39 38 38
36 36 36 36 37 38 40 41 41 42 43 43 43 43 42 42 41 40 39 39 38 38 37 37 37 36 36 37 38 39 40 41 41 42 42 43 43 43 42 41 39 39
37 37 37 38 38 40 41 42 43 44 45 45 44 45 45 44 43 41 41 41 40 40 39 39 39 39 39 39 40 41 41 42 42 42 43 44 44 44 43 42 40 39
38 38 38 39 40 41 42 43 44 45 45 45 46 47 46 45 44 43 43 42 42 41 41 41 41 41 42 42 42 42 43 43 43 43 43 44 44 44 44 43 41 40
39 39 40 40 41 42 43 44 45 45 45 46 47 48 47 47 46 45 45 44 43 43 42 42 42 42 42 43 43 44 44 44 43 43 43 43 43 43 43 42 41 40
40 40 40 41 42 43 44 44 45 45 46 47 48 48 48 48 48 47 46 45 44 44 43 43 42 42 42 42 43 44 44 44 44 43 43 43 43 42 42 41 41 40
40 40 41 42 43 43 44 44 45 46 47 48 48 49 49 49 49 48 47 46 45 44 43 43 42 42 42 42 42 43 43 44 44 43 43 42 42 42 42 42 41 40
40 41 42 42 43 44 44 45 46 47 48 48 49 49 50 49 48 47 46 46 45 43 42 42 41 40 41 42 43 43 43 43 43 43 43 43 43 43 43 42 42 41
41 42 42 43 44 45 45 46 47 48 48 49 50 50 49 48 47 46 45 44 43 42 41 41 41 41 43 44 44 44 43 43 43 42 43 43 44 44 43 43 43 42
41 42 43 44 45 46 46 47 47 48 49 49 49 49 48 47 46 45 43 43 42 42 43 43 44 45 45 45 45 44 44 44 44 44 44 44 44 44 44 44 44 44
42 43 44 45 46 46 47 47 48 48 49 49 48 47 46 44 43 43 43 44 44 45 45 45 45 45 45 46 46 47 47 47 48 48 48 48 47 47 47 46 46 45
43 44 45 45 46 46 47 47 48 48 47 47 46 44 43 43 43 44 45 45 45 45 45 45 46 46 47 47 48 48 48 49 49 49 49 50 50 50 50 49 49 48
42 43 44 45 45 46 46 46 47 46 45 44 43 42 43 44 44 44 44 45 45 46 47 48 48 49 49 49 48 48 48 48 48 48 48 49 49 50 50 51 51 51
41 42 43 44 44 45 45 45 44 44 43 42 42 43 43 43 43 43 44 45 46 48 48 49 49 50 50 50 50 49 49 49 48 48 48 48 48 48 49 50 51 51
40 41 42 42 43 43 43 42 41 41 41 42 42 42 42 42 43 44 46 47 47 48 48 48 49 49 50 50 51 51 51 50 50 50 49 48 48 48 48 48 49 50
40 40 41 41 41 41 40 40 40 40 41 40 40 41 42 43 45 45 46 46 46 47 47 48 48 49 50 50 51 51 51 52 52 52 52 51 51 50 49 49 49 49
38 39 39 39 38 38 38 39 39 39 39 39 40 42 43 44 44 44 44 45 45 46 47 47 48 49 49 50 51 51 52 52 53 54 54 54 54 53 52 51 51 50
37 37 37 37 37 37 38 38 38 38 38 39 41 42 42 42 43 43 43 44 45 46 47 47 48 49 50 50 51 52 52 53 53 54 55 55 55 55 55 54 53 52
35 35 35 36 36 37 36 36 37 37 38 39 40 40 40 40 41 42 43 45 46 47 47 48 49 49 50 51 51 52 52 52 53 53 54 55 56 57 58 57 57 56
34 35 35 36 35 35 35 35 36 37 37 38 38 38 39 40 41 43 44 45 46 47 48 49 49 50 51 51 51 52 52 52 53 53 54 56 57 58 60 61 61 60
35 35 35 34 34 34 34 35 35 36 36 36 37 38 39 40 42 43 44 45 46 47 48 49 50 50 51 51 51 52 52 52 53 54 55 56 58 60 61 63 64 63
35 34 33 33 33 33 34 34 34 34 34 35 37 38 40 41 42 43 44 45 46 47 48 49 50 50 51 51 51 51 51 52 53 54 56 57 59 61 63 63 64 64
33 32 32 32 32 32 32 32 32 33 34 36 37 39 40 41 42 43 43 44 46 47 48 49 49 50 50 50 51 51 51 53 54 55 57 59 60 62 63 61 59 57
31 31 31 31 30 30 30 31 32 33 35 37 38 39 40 40 41 42 43 44 45 46 48 48 49 49 49 50 50 51 52 54 55 57 58 61 63 63 60 56 52 49
Wind_Direction
279 280 281 283 285 286 287 289 291 293 295 297 299 300 301 302 301 299 297 295 294 292 291 290 290 290 290 290 291 291 292 293 294 294 294 292 291 290 289 287 287 287
279 280 281 282 283 285 286 289 291 293 295 297 298 299 300 302 302 300 299 297 296 294 293 292 291 291 291 291 291 291 292 292 293 293 293 292 291 290 288 287 286 286
278 279 279 281 282 284 286 289 291 293 295 296 297 298 299 300 301 300 299 299 298 296 295 294 293 293 292 292 291 291 292 293 293 294 293 292 292 290 289 288 287 286
277 278 278 280 282 284 286 288 290 292 294 296 297 299 300 301 301 300 300 300 300 298 297 296 295 294 294 293 292 292 292 292 293 293 293 292 292 291 290 289 287 286
276 277 277 279 281 283 285 287 290 292 294 296 298 300 301 302 301 301 301 301 301 300 300 299 299 298 298 297 296 295 295 294 294 293 293 293 292 291 290 289 288 286
275 276 277 278 280 283 285 288 290 292 294 296 298 300 301 302 302 303 303 303 303 302 302 302 302 301 301 301 300 299 298 297 296 295 294 293 293 292 291 290 288 286
275 276 276 278 280 283 286 289 291 292 294 296 298 300 301 302 303 304 304 304 303 303 303 302 302 302 302 302 301 300 299 298 297 296 295 294 293 292 291 290 288 286
273 274 275 277 280 283 287 290 291 292 293 295 298 300 301 302 303 304 304 303 303 303 303 302 302 302 301 301 300 299 299 298 297 296 295 294 293 292 291 290 288 287
272 273 275 278 281 285 288 289 290 291 293 295 297 299 301 302 303 303 303 303 303 303 302 302 302 301 301 300 299 298 297 296 296 295 294 293 292 291 290 289 287 286
273 274 277 280 283 286 288 289 290 291 293 296 298 300 301 302 302 302 302 302 302 302 302 302 301 300 299 299 299 298 297 296 295 295 294 292 291 289 288 287 286 285
274 277 279 282 284 286 288 289 290 292 294 297 298 300 300 301 301 301 301 301 302 302 302 302 300 300 299 299 299 298 297 296 295 295 294 292 291 289 287 286 285 284
275 277 279 281 284 286 288 289 291 293 296 297 299 299 299 299 300 301 302 303 303 303 303 302 301 301 300 300 300 299 298 297 296 295 294 292 291 289 288 286 285 283
275 277 279 281 284 286 288 290 292 294 296 297 298 298 298 299 301 302 303 304 304 303 303 302 302 301 301 301 300 300 299 298 297 296 294 293 291 289 288 286 285 284
276 277 279 282 284 286 288 291 293 295 296 296 296 298 299 301 303 304 304 304 303 303 303 302 302 301 301 300 300 300 299 298 297 296 295 293 292 290 288 286 284 283
277 279 281 284 286 288 290 292 294 294 295 296 298 300 302 303 304 304 304 304 304 304 304 303 303 302 301 301 300 300 299 298 297 295 294 293 292 291 289 287 285 283
280 283 285 287 289 291 292 293 294 295 296 298 300 302 304 304 305 304 304 304 305 304 304 304 303 303 303 302 302 301 301 300 298 297 295 294 292 291 289 288 286 284
285 287 288 290 291 292 293 294 295 297 299 301 303 304 305 305 305 305 305 305 305 305 305 305 305 306 306 306 305 304 304 303 301 300 298 296 294 292 290 288 286 284
288 289 289 290 291 292 293 295 297 300 302 303 304 305 305 305 305 306 306 306 306 307 307 308 309 309 309 308 308 307 306 305 304 302 301 299 297 294 292 289 287 285
288 289 290 291 292 294 296 298 300 302 304 305 305 305 305 306 306 307 307 307 308 309 309 310 310 310 309 309 308 307 307 306 305 303 302 300 298 296 293 291 288 286
289 290 291 292 294 296 298 301 302 304 304 305 305 306 306 306 307 307 308 309 310 311 311 311 311 311 310 310 309 308 307 307 305 304 303 301 299 298 295 293 290 287
289 290 292 294 296 299 300 302 303 304 304 305 305 306 306 307 308 309 311 312 312 312 312 312 312 312 312 311 311 310 309 308 306 305 304 303 301 300 298 295 292 289
290 292 294 296 299 300 301 303 303 304 305 305 306 307 308 310 311 313 313 313 314 313 314 314 314 314 313 313 312 311 310 309 308 307 305 304 303 301 300 297 295 292
292 294 296 298 300 301 302 303 304 305 306 308 309 310 312 313 313 314 314 314 315 315 315 316 315 315 315 314 313 312 311 310 309 308 307 306 305 303 302 300 297 294
295 296 297 299 301 302 303 304 306 307 308 310 311 312 313 313 314 314 315 316 317 317 318 318 317 317 316 316 315 314 313 312 311 311 310 309 308 306 305 303 299 296
295 296 298 300 301 302 304 306 307 309 310 312 313 313 314 315 316 317 318 319 319 320 320 320 320 319 318 317 317 316 316 315 315 314 313 313 312 311 309 306 302 297
295 297 298 300 301 303 305 307 309 311 312 314 315 316 317 318 319 320 321 321 322 322 322 322 321 321 320 320 320 319 319 319 319 318 318 318 317 315 313 309 305 300